Flag for U.S.A. Weather past 2 weeks in Wilmington, Delaware, U.S.A.

Now
91 °F

Sunny.


Feels Like: 98 °F
Forecast: 74 / 89 °F
Wind: 12 mph from Southwest

Location: New Castle County Airport

Current Time: Sep 2, 2014 at 3:24:35 PM

Latest Report: Sep 2, 2014 at 2:51 PM


Visibility: 10 mi

Pressure: 29.90 "Hg

Humidity: 52%

Dew point: 71 °F

Location of WilmingtonLocation

Historic Weather in Wilmington — Graph

°F

Wilmington temperature yesterday

Maximum temperature yesterday: 87 °F (at 3:51 PM)
Minimum temperature yesterday: 73 °F (at 5:51 AM)
Average temperature yesterday: 79 °F

Past Weeks' High & Low Weather Summary

 TemperatureHumidityPressure
High92 °F (Aug 31, 1:51 PM)97% (Aug 25, 4:51 AM)30.27 "Hg (Aug 25, 4:51 AM)
Low56 °F (Aug 29, 6:51 AM)39% (Aug 28, 5:51 PM)29.83 "Hg (Aug 18, 6:51 PM)
Average74 °F72%30.05 "Hg
* Reported Aug 18 1:51 PM — Sep 2 1:51 PM, Wilmington, Weather by CustomWeather, © 2014

Note: Actual official high and low records may vary slightly from our data, if they occured in-between our weather recording intervals... More about our weather records

Advertising

Wilmington weather history for previous 24 hours

 ConditionsComfort  
Time TempWeatherWind HumidityBarometerVisibility
1:51 PM
Sep 2
90 °FPartly sunny.10 mph56%29.92 "Hg10 mi
12:51 PM89 °FScattered clouds.9 mph57%29.93 "Hg10 mi
11:51 AM89 °FScattered clouds.9 mph57%29.95 "Hg10 mi
10:51 AM87 °FSunny.12 mph59%29.96 "Hg10 mi
9:51 AM85 °FSunny.7 mph65%29.96 "Hg10 mi
8:51 AM81 °FSunny.7 mph79%29.96 "Hg10 mi
7:51 AM76 °FSunny.7 mph94%29.96 "Hg10 mi
6:51 AM74 °FClear.5 mph97%29.96 "Hg10 mi
5:51 AM74 °FClear.6 mph94%29.93 "Hg10 mi
4:51 AM74 °FPassing clouds.5 mph91%29.92 "Hg10 mi
3:51 AM76 °FPassing clouds.No wind88%29.93 "Hg10 mi
2:51 AM77 °FPassing clouds.7 mph88%29.94 "Hg10 mi
1:51 AM77 °FPassing clouds.No wind90%29.95 "Hg10 mi
12:51 AM78 °FClear.No wind87%29.96 "Hg10 mi
11:51 PM
Sep 1
78 °FClear.3 mph93%29.96 "Hg10 mi
10:51 PM78 °FClear.No wind93%29.97 "Hg10 mi
9:51 PM79 °FClear.5 mph90%29.96 "Hg10 mi
8:51 PM80 °FClear.6 mph87%29.95 "Hg10 mi
7:51 PM81 °FSunny.7 mph79%29.95 "Hg10 mi
6:51 PM83 °FScattered clouds.12 mph74%29.94 "Hg10 mi
5:51 PM84 °FScattered clouds.12 mph74%29.93 "Hg10 mi
4:51 PM86 °FScattered clouds.9 mph67%29.95 "Hg10 mi
3:51 PM87 °FPartly sunny.10 mph63%29.96 "Hg10 mi
Weather by CustomWeather, © 2014

See weather overviewHow to use our weather pages